Inquirer Daily News

Weather

Get conditions and forecasts for any City, State, ZIP code or Country:  
Trenton, NJ
on Wednesday, November 7, 2012

Wednesday
Previous Day Next Day
Daily Summary
 ActualAverageRecord
Temperature
Mean Temperature °F 48°F  
Max Temperature 40°F 58°F 76°F (1975)
Min Temperature 33°F 39°F 24°F (1993)
Degree Days
Heating Degree Days 28 17  
Month to date heating degree days 167 111  
Since 1 July heating degree days 475 508  
Cooling Degree Days 0 0  
Month to date cooling degree days 0 0  
Year to date cooling degree days 1234 965  
Moisture
Dew Point 29°F   
Average Humidity 72    
Maximum Humidity 96    
Minimum Humidity 47    
Precipitation
Precipitation 0.35 in 0.11 in 2.73 in (1977)
Month to date precipitation 0.36 0.73  
Year to date precipitation 32.41 40.16  
Wind
Wind Speed 14 mph   
Max Wind Speed 22 mph   
Max Gust Speed 31 mph   
Visibility 4 miles   
Events Snow   

Key: T is trace of precipitation, MM is missing value
Source: NWS Daily Summary
Time(EST)TemperatureDew PointHumidity Pressure Visibility Wind DirectionWind SpeedGust SpeedPrecipitationEvents Conditions
12:53 AM 35.1°F 23.0°F 61% 30.00 in 10.0 miles NNE 9.2 mph - N/A   Clear
1:53 AM 36.0°F 23.0°F 59% 29.99 in 10.0 miles NNE 5.8 mph - N/A   Clear
2:53 AM 36.0°F 21.0°F 55% 29.96 in 10.0 miles NE 12.7 mph - N/A   Clear
3:53 AM 37.0°F 23.0°F 57% 29.92 in 10.0 miles NE 17.3 mph 21.9 mph N/A   Clear
4:53 AM 36.0°F 18.0°F 48% 29.92 in 10.0 miles ENE 13.8 mph 24.2 mph N/A   Mostly Cloudy
5:53 AM 36.0°F 21.9°F 57% 29.92 in 10.0 miles NE 12.7 mph - N/A   Mostly Cloudy
6:53 AM 37.0°F 25.0°F 62% 29.93 in 10.0 miles NE 9.2 mph - N/A   Mostly Cloudy
7:53 AM 37.9°F 25.0°F 60% 29.93 in 10.0 miles NE 11.5 mph - N/A   Overcast
8:53 AM 39.0°F 26.1°F 60% 29.91 in 10.0 miles NE 13.8 mph 23.0 mph N/A   Overcast
9:53 AM 39.0°F 27.0°F 62% 29.88 in 10.0 miles NE 18.4 mph 25.3 mph N/A   Overcast
10:53 AM 39.9°F 26.1°F 58% 29.88 in 10.0 miles NNE 12.7 mph 23.0 mph N/A   Overcast
11:53 AM 37.9°F 28.0°F 68% 29.85 in 9.0 miles NNE 16.1 mph 20.7 mph 0.00 in Snow Light Snow
12:00 PM 37.4°F 28.4°F 70% 29.86 in 7.0 miles NNE 12.7 mph 20.7 mph 0.00 in Snow Light Snow
12:13 PM 37.4°F 30.2°F 75% 29.86 in 4.0 miles NNE 10.4 mph 24.2 mph 0.00 in Snow Light Snow
12:25 PM 35.6°F 30.2°F 81% 29.85 in 2.5 miles NNE 11.5 mph - 0.02 in Snow Light Snow
12:53 PM 36.0°F 30.0°F 79% 29.83 in 9.0 miles NNE 15.0 mph - 0.03 in Snow Light Snow
1:22 PM 35.6°F 30.2°F 81% 29.86 in 2.5 miles NNE 9.2 mph 17.3 mph 0.01 in Snow Light Snow
1:50 PM 35.6°F 32.0°F 87% 29.86 in 3.0 miles NNE 11.5 mph - 0.03 in Snow Light Snow
1:53 PM 35.1°F 32.0°F 89% 29.85 in 3.0 miles NNE 11.5 mph - 0.03 in Snow Light Snow
1:55 PM 35.6°F 32.0°F 87% 29.86 in 2.5 miles NNE 10.4 mph - 0.00 in Snow Light Snow
2:18 PM 33.8°F 32.0°F 93% 29.86 in 2.0 miles North 11.5 mph - 0.02 in Snow Light Snow
2:24 PM 33.8°F 32.0°F 93% 29.86 in 1.8 miles North 12.7 mph - 0.02 in Snow Light Snow
2:41 PM 33.8°F 32.0°F 93% 29.86 in 1.5 miles NNE 11.5 mph 23.0 mph 0.04 in Snow Light Snow
2:47 PM 33.8°F 32.0°F 93% 29.86 in 1.8 miles North 12.7 mph - 0.04 in Snow Light Snow
2:48 PM 33.8°F 32.0°F 93% 29.85 in 2.0 miles North 13.8 mph - 0.04 in Snow Light Snow
2:53 PM 34.0°F 32.0°F 92% 29.85 in 2.0 miles North 13.8 mph - 0.05 in Snow Light Snow
3:36 PM 33.8°F 32.0°F 93% 29.85 in 3.0 miles North 17.3 mph 23.0 mph 0.02 in Snow Light Snow
3:46 PM 33.8°F 32.0°F 93% 29.85 in 4.0 miles North 16.1 mph - 0.03 in Snow Light Snow
3:53 PM 34.0°F 32.0°F 92% 29.85 in 2.0 miles NNE 15.0 mph - 0.03 in Snow Light Snow
3:57 PM 33.8°F 32.0°F 93% 29.85 in 2.5 miles North 15.0 mph - 0.01 in Snow Light Snow
4:01 PM 33.8°F 32.0°F 93% 29.85 in 1.8 miles North 16.1 mph 24.2 mph 0.01 in Snow Light Snow
4:53 PM 33.1°F 30.9°F 92% 29.83 in 1.0 miles North 12.7 mph - 0.06 in Snow Light Snow
6:14 PM 33.8°F 30.2°F 87% 29.86 in 1.5 miles NNE 13.8 mph 23.0 mph 0.01 in Snow Light Snow
6:53 PM 33.1°F 30.9°F 92% 29.85 in 1.5 miles NNE 13.8 mph 25.3 mph 0.03 in Snow Light Snow
7:53 PM 33.1°F 30.9°F 92% 29.83 in 1.0 miles North 21.9 mph 28.8 mph 0.03 in Snow Light Snow
8:12 PM 33.8°F 30.2°F 87% 29.85 in 0.8 miles North 17.3 mph 27.6 mph 0.01 in Snow Light Snow
8:22 PM 33.8°F 30.2°F 87% 29.84 in 1.0 miles North 15.0 mph 25.3 mph 0.02 in Snow Light Snow
8:53 PM 33.1°F 30.9°F 92% 29.83 in 1.5 miles North 18.4 mph - 0.03 in Snow Light Snow
9:53 PM 33.1°F 30.9°F 92% 29.82 in 1.2 miles North 17.3 mph 25.3 mph 0.02 in Snow Light Snow
10:19 PM 33.8°F 30.2°F 87% 29.82 in 1.5 miles North 17.3 mph 21.9 mph 0.00 in Snow Light Snow
10:53 PM 33.1°F 30.9°F 92% 29.80 in 1.8 miles North 15.0 mph - 0.01 in Snow Light Snow
11:00 PM 33.8°F 30.2°F 87% 29.81 in 1.5 miles North 15.0 mph 26.5 mph 0.00 in Snow Light Snow
11:29 PM 33.8°F 30.2°F 87% 29.80 in 2.0 miles North 16.1 mph - 0.00 in Snow Light Snow
11:44 PM 33.8°F 30.2°F 87% 29.80 in 1.8 miles North 13.8 mph 23.0 mph 0.00 in Snow Light Snow
11:53 PM 33.1°F 30.0°F 89% 29.79 in 2.0 miles North 15.0 mph - 0.00 in Snow Light Snow
Astronomy
Sunrise:06:36 AM (EST) Moon Rise:No Moon Rise/
Sunset:04:49 PM (EST) Moon Set:12:57 PM (EST)11/7
Moon Phase
Nov. 07 Nov. 13 Nov. 20 Nov. 28 Dec. 06

Copyright © 2014 The Weather Underground, Inc.